Retour au catalogue

COSMOS 2251 DEB

ActifLEO
NORAD 35594·DEBRIS·🇷🇺 Russia

Lancé Jun 16, 1993 depuis Plesetsk Cosmodrome

Loading…

Prochains Passages (prochaines 24 heures)

TLE

FraisSource: Space-Track

Époque: Sep 14, 2026, 10:31 UTC

1 35594U 93036AMM 26257.43854428  .00008243  00000-0  75932-3 0  9993
2 35594  73.8038 265.6099 0030242 316.9679  42.9139 14.94509075922966

Suivez COSMOS 2251 DEB en temps réel avec AllMySat

Download on the App Store